This is the latest recevied weather packets stored in our database for station/object SQ9RHX-13. If no packets are shown the sender has not sent any weather packets the latest 10 day(s).
| Time | Temp. | Humidity | Pressure | Rain* | Wind** | Luminosity | Snow |
|---|---|---|---|---|---|---|---|
| 1777901405 | 27.78° C | 33% | 1015.6 hPa | 0 mm | - | 443 W/m² | - |
| 1777901104 | 27.22° C | 33% | 1015.6 hPa | 0 mm | - | 469 W/m² | - |
| 1777900803 | 27.22° C | 34% | 1015.8 hPa | 0 mm | - | 486 W/m² | - |
| 1777900504 | 26.67° C | 33% | 1015.7 hPa | 0 mm | - | 449 W/m² | - |
| 1777900202 | 26.67° C | 34% | 1015.8 hPa | 0 mm | - | 509 W/m² | - |
| 1777899903 | 26.67° C | 34% | 1015.7 hPa | 0 mm | - | 242 W/m² | - |
| 1777899604 | 27.22° C | 34% | 1015.8 hPa | 0 mm | - | 343 W/m² | - |
| 1777899304 | 27.22° C | 33% | 1015.6 hPa | 0 mm | - | 363 W/m² | - |
| 1777899006 | 27.78° C | 33% | 1016 hPa | 0 mm | - | 556 W/m² | - |
| 1777898703 | 27.78° C | 31% | 1015.8 hPa | 0 mm | - | 558 W/m² | - |
| 1777898403 | 27.78° C | 30% | 1015.9 hPa | 0 mm | - | 584 W/m² | - |
| 1777898103 | 27.22° C | 32% | 1015.9 hPa | 0 mm | - | 579 W/m² | - |
| 1777897804 | 27.22° C | 34% | 1016 hPa | 0 mm | - | 578 W/m² | - |
| 1777897504 | 27.22° C | 31% | 1015.9 hPa | 0 mm | - | 336 W/m² | - |
| 1777897205 | 27.78° C | 31% | 1016.1 hPa | 0 mm | - | 609 W/m² | - |
| 1777896903 | 27.78° C | 31% | 1016 hPa | 0 mm | - | 632 W/m² | - |
| 1777896603 | 27.78° C | 31% | 1016.2 hPa | 0 mm | - | 594 W/m² | - |
| 1777896303 | 27.22° C | 32% | 1016.2 hPa | 0 mm | - | 613 W/m² | - |
| 1777896003 | 27.78° C | 33% | 1016 hPa | 0 mm | - | 539 W/m² | - |
| 1777895702 | 27.78° C | 31% | 1016.2 hPa | 0 mm | - | 548 W/m² | - |
| 1777895403 | 27.22° C | 32% | 1016.3 hPa | 0 mm | - | 482 W/m² | - |
| 1777895105 | 27.22° C | 31% | 1016.2 hPa | 0 mm | - | 645 W/m² | - |
| 1777894802 | 27.78° C | 31% | 1016.3 hPa | 0 mm | - | 427 W/m² | - |
| 1777894503 | 27.22° C | 32% | 1016.3 hPa | 0 mm | - | 694 W/m² | - |
| 1777894203 | 27.22° C | 32% | 1016.4 hPa | 0 mm | - | 687 W/m² | - |
* Rain latest hour (hover to see other rain measurements)
** Current wind speed in m/s (hover to see current wind gust speed)